Haines, AK

9:29 PM AKDT on July 23, 2017 (GMT -0800)
Haines

Weather History for PAHN - January, 2013

Change the Weather History Date:

Sunday, January 20, 2013

  Actual Average Record
Temperature  
Mean Temperature 21 °F -  
Max Temperature 24 °F 25 °F 44 °F (1981)
Min Temperature 18 °F 18 °F 5 °F (2012)
Degree Days  
Heating Degree Days 44    
Moisture  
Dew Point 17 °F    
Average Humidity 79    
Maximum Humidity 91    
Minimum Humidity 68    
Precipitation  
Precipitation 0.02 in - - ()
Sea Level Pressure  
Sea Level Pressure 30.23 in    
Wind  
Wind Speed 10 mph (WNW)    
Max Wind Speed 15 mph    
Max Gust Speed -    
Visibility 7 miles    
Events Snow    
Averages and records for this station are not official NWS values.
T = Trace of Precipitation, MM = Missing Value Source: NWS Daily Summary

Daily Weather History Graph

Daily Weather History Graph

Search for Another Location

Airport or City:

Trip Planner

Search our weather history database for the weather conditions in past years. The results will help you decide how hot, cold, wet, or windy it might be!

Date:

Astronomy

Jan. 20, 2013 Rise Set
Actual Time 8:35 AM AKST 3:52 PM AKST
Civil Twilight 7:45 AM AKST 4:41 PM AKST
Nautical Twilight 6:54 AM AKST 5:32 PM AKST
Astronomical Twilight 6:05 AM AKST 6:21 PM AKST
Moon 11:01 AM AKST (1/20) 3:08 AM AKST (1/20)
Length of Visible Light 8h 55m
Length of Day
7h 16m
Waxing Gibbous, 67% of the Moon is Illuminated
Jan 20
Waxing Gibbous
Jan 26
Full
Feb 3
Last Quarter
Feb 9
New
Feb 17
First Quarter

Hourly Weather History & Observations

Time (AKST) Temp. Windchill Dew Point Humidity Pressure Visibility Wind Dir Wind Speed Gust Speed Precip Events Conditions
12:54 AM 19.0 °F 5.6 °F 10.0 °F 68% 30.42 in 10.0 mi WNW 13.8 mph - N/A   Overcast
1:54 AM 19.0 °F 5.6 °F 10.0 °F 68% 30.40 in 10.0 mi WNW 13.8 mph - N/A   Partly Cloudy
2:54 AM 18.0 °F 4.2 °F 10.9 °F 74% 30.38 in 10.0 mi WNW 13.8 mph - N/A   Partly Cloudy
3:54 AM 19.0 °F 6.1 °F 10.9 °F 71% 30.36 in 10.0 mi WNW 12.7 mph - N/A   Mostly Cloudy
4:54 AM 19.0 °F 5.0 °F 12.0 °F 74% 30.32 in 10.0 mi WNW 15.0 mph - N/A   Mostly Cloudy
5:54 AM 19.0 °F 9.0 °F 12.0 °F 74% 30.31 in 10.0 mi WNW 8.1 mph - N/A   Overcast
6:54 AM 19.0 °F 7.5 °F 12.9 °F 77% 30.30 in 10.0 mi West 10.4 mph - N/A   Overcast
7:54 AM 19.9 °F 10.1 °F 12.9 °F 74% 30.29 in 10.0 mi WNW 8.1 mph - N/A   Overcast
8:54 AM 19.9 °F 10.1 °F 14.0 °F 78% 30.29 in 10.0 mi WNW 8.1 mph - N/A   Overcast
9:54 AM 19.9 °F 9.3 °F 14.0 °F 78% 30.28 in 10.0 mi WNW 9.2 mph - N/A   Overcast
10:17 AM 21.2 °F 14.9 °F 15.8 °F 80% 30.28 in 10.0 mi WNW 4.6 mph - N/A   Overcast
10:54 AM 21.0 °F 11.4 °F 15.1 °F 78% 30.28 in 10.0 mi WNW 8.1 mph - N/A   Mostly Cloudy
11:06 AM 21.2 °F 8.9 °F 15.8 °F 80% 30.26 in 10.0 mi WNW 12.7 mph - N/A   Mostly Cloudy
11:54 AM 21.9 °F 14.5 °F 16.0 °F 78% 30.25 in 10.0 mi WNW 5.8 mph - N/A   Scattered Clouds
12:29 PM 21.2 °F 12.6 °F 15.8 °F 80% 30.24 in 10.0 mi WNW 6.9 mph - N/A   Mostly Cloudy
12:54 PM 23.0 °F 18.4 °F 16.0 °F 74% 30.25 in 10.0 mi WNW 3.5 mph - N/A   Overcast
1:54 PM 24.1 °F 18.2 °F 17.1 °F 75% 30.23 in 10.0 mi WNW 4.6 mph - N/A   Overcast
2:27 PM 24.8 °F - 15.8 °F 69% 30.21 in 10.0 mi Calm Calm - N/A   Mostly Cloudy
2:54 PM 24.1 °F 19.7 °F 17.1 °F 75% 30.21 in 10.0 mi West 3.5 mph - N/A   Partly Cloudy
3:09 PM 24.8 °F - 17.6 °F 74% 30.20 in 10.0 mi Calm Calm - N/A   Mostly Cloudy
3:54 PM 24.1 °F 19.7 °F 17.1 °F 75% 30.22 in 10.0 mi WNW 3.5 mph - N/A   Overcast
4:54 PM 24.1 °F 16.0 °F 18.0 °F 77% 30.19 in 10.0 mi WNW 6.9 mph - 0.00 in   Overcast
5:54 PM 24.1 °F 15.2 °F 18.0 °F 77% 30.17 in 10.0 mi WNW 8.1 mph - N/A   Overcast
6:47 PM 24.8 °F 19.1 °F 19.4 °F 80% 30.16 in 5.0 mi WNW 4.6 mph - 0.00 in Snow Light Snow
6:54 PM 24.1 °F 18.2 °F 19.0 °F 81% 30.17 in 7.0 mi WNW 4.6 mph - 0.00 in Snow Light Snow
7:54 PM 24.1 °F 17.0 °F 19.9 °F 84% 30.16 in 4.0 mi West 5.8 mph - 0.00 in Snow Light Snow
8:54 PM 24.1 °F 13.1 °F 19.9 °F 84% 30.16 in 3.0 mi WNW 11.5 mph - 0.00 in Snow Light Snow
9:08 PM 24.8 °F 14.0 °F 19.4 °F 80% 30.15 in 2.5 mi WNW 11.5 mph - 0.00 in Snow Light Snow
9:51 PM 24.8 °F 14.0 °F 21.2 °F 86% 30.14 in 3.0 mi WNW 11.5 mph - 0.01 in Snow Light Snow
9:54 PM 24.1 °F 14.4 °F 21.0 °F 88% 30.16 in 3.0 mi West 9.2 mph - 0.01 in Snow Light Snow
10:04 PM 24.8 °F 14.6 °F 21.2 °F 86% 30.14 in 2.0 mi WNW 10.4 mph - 0.00 in Snow Light Snow
10:15 PM 24.8 °F 14.6 °F 21.2 °F 86% 30.14 in 3.0 mi WNW 10.4 mph - 0.00 in Snow Light Snow
10:45 PM 24.8 °F 14.6 °F 21.2 °F 86% 30.14 in 2.5 mi WNW 10.4 mph - 0.00 in Snow Light Snow
10:54 PM 24.1 °F 13.7 °F 21.9 °F 91% 30.15 in 2.0 mi WNW 10.4 mph - 0.00 in Snow Light Snow
11:06 PM 24.8 °F 14.6 °F 21.2 °F 86% 30.14 in 1.8 mi WNW 10.4 mph - 0.00 in Snow Light Snow
11:21 PM 24.8 °F 14.6 °F 21.2 °F 86% 30.14 in 2.0 mi WNW 10.4 mph - 0.01 in Snow Light Snow
11:54 PM 24.1 °F 17.0 °F 21.9 °F 91% 30.15 in 1.8 mi WNW 5.8 mph - 0.01 in Snow Light Snow